Regional Weather Roundup
Issued by NWS

Home | Current Version | Previous Version | Graphics & Text | Print | Product List | Glossary Off
Versions: 1 2 3 4 5 6 7 8 9 10 11 12 13 14 15 16 17 18 19 20 21 22 23 24 25 26 27 28 29 30 31 32 33 34 35 36 37 38 39 40 41 42 43 44 45 46 47 48 49 50

000
ASUS43 KMPX 221701
RWRMN
WEATHER ROUNDUP FOR MINNESOTA
NATIONAL WEATHER SERVICE TWIN CITIES/CHANHASSEN MN
1200 PM CDT SAT JUL 22 2017


NOTE: "FAIR" INDICATES FEW OR NO CLOUDS BELOW 12,000 FEET WITH NO
SIGNIFICANT WEATHER AND/OR OBSTRUCTIONS TO VISIBILITY. N/A MEANS
CURRENT SKY AND/OR WEATHER CONDITIONS ARE NOT AVAILABLE.

MNZ060>063-068>070-221800-
   Twin Cities Metro

CITY           SKY/WX    TMP DP  RH WIND       PRES   REMARKS
TWIN CITIES    MOSUNNY   84  68  58 CALM      29.82S
ST PAUL        SUNNY     84  69  60 VRB3      29.81S
CRYSTAL        SUNNY     84  65  52 W8        29.81R
BLAINE         MOSUNNY   86  64  48 W6        29.82R
LAKEVILLE      SUNNY     81  70  69 CALM      29.83S
EDEN PRAIRIE   SUNNY     83  69  62 W7        29.82S
SOUTH ST PAUL  SUNNY     83  67  58 W3        29.82S
LAKE ELMO      FAIR      82  70  65 CALM      29.83F
$$
MNZ001>005-007-008-013>017-022>024-027-028-221800-
   Northwest Minnesota

CITY           SKY/WX    TMP DP  RH WIND       PRES   REMARKS
BEMIDJI        PTSUNNY   77  65  66 W13G20    29.83S
HALLOCK        MOSUNNY   72  63  73 NW15G21   29.82R
ROSEAU         SUNNY     75  64  69 W13G21    29.80R
WARROAD        SUNNY     75  64  69 W15       29.78S
CROOKSTON      SUNNY     79  57  47 NW20G30   29.84R
FOSSTON        SUNNY     75  64  69 W13G21    29.85R
DETROIT LAKES  SUNNY     77  64  65 W14G23    29.88S
MOORHEAD       SUNNY     81  66  61 NW16G22   29.86S
PARK RAPIDS    SUNNY     82  65  56 W18G25    29.85R
MAHNOMEN       FAIR      76  67  73 W16G24    29.85S
$$
MNZ006-009>011-018-025>026-221800-
   North Central Minnesota

CITY           SKY/WX    TMP DP  RH WIND       PRES   REMARKS
BAUDETTE       MOSUNNY   80  61  52 W15G21    29.77F
FLAG ISLAND    MOSUNNY   73  63  68 W8        29.75S HAZE
INTL FALLS     CLOUDY    71  64  78 CALM      29.79S
WASKISH        PTSUNNY   73  70  88 SW13      29.80S
BIG FORK       SUNNY     79  66  65 SW12      29.80F
LONGVILLE      MOSUNNY   79  66  65 W7        29.83R
GRAND RAPIDS   SUNNY     77  65  66 W9        29.84R
CRANE LAKE     PTSUNNY   70  63  78 S3        29.81F
ORR            PTSUNNY   72  63  73 CALM      29.79S
COOK           CLOUDY    70  63  78 CALM      29.82S
WALKER         FAIR      78  65  63 W12       29.83S
$$
MNZ012-019>021-037-221800-
   Northeast Minnesota

CITY           SKY/WX    TMP DP  RH WIND       PRES   REMARKS
DULUTH         CLOUDY    69  64  84 SE8       29.84R
ELY            SUNNY     72  59  64 SE3       29.81F
HIBBING        MOSUNNY   71  67  87 CALM      29.82S
EVELETH        CLOUDY    73  63  71 CALM      29.83S
DULUTH HARBOR  CLOUDY    63  57  82 NE12      29.85R
TWO HARBORS    CLOUDY    66  61  82 E3        29.82S
SILVER BAY     SUNNY     66  57  72 E8        29.82F
GRAND MARAIS     N/A     61  53  75 NE10      29.84S
G MARAIS ARPRT CLOUDY    64  54  68 CALM      29.87S
$$
MNZ029>031-032-039>041-046>048-054>057-064-221800-
   West Central Minnesota

CITY           SKY/WX    TMP DP  RH WIND       PRES   REMARKS
FERGUS FALLS   SUNNY     77  68  73 W10       29.86S
WHEATON        SUNNY     81  68  65 W8        29.88F
MORRIS         SUNNY     82  68  61 W10       29.86S
ALEXANDRIA     SUNNY     79  68  69 W13       29.88S
ELBOW LAKE     FAIR      78  71  78 NW13G20   29.87F HAZE
WADENA         SUNNY     79  66  65 W12G18    29.85S
GLENWOOD       SUNNY     81  70  69 SW14      29.87S
APPLETON       SUNNY     81  70  69 W9        29.86S
BENSON         SUNNY     82  70  65 NW8       29.87S
ORTONVILLE     SUNNY     81  68  65 W8        29.87S
MADISON        CLOUDY    82  72  69 W6        29.87F
WILLMAR        FAIR      82  70  65 W8        29.87S
$$
MNZ033>034-036-042>043-049>051-058-059-221800-
   Central Minnesota

CITY           SKY/WX    TMP DP  RH WIND       PRES   REMARKS
ST CLOUD       MOSUNNY   83  68  60 W7        29.83S
SAUK CENTRE    FAIR      81  68  64 SW12      29.86S
PAYNESVILLE    MOSUNNY   84  65  53 W10       29.86S
AITKIN         MOSUNNY   77  66  69 SW5       29.82S
PINE RIVER     SUNNY     79  66  65 NW10G16   29.87R
BRAINERD       MOSUNNY   81  65  58 W14       29.83S
STAPLES        SUNNY     81  64  57 W15G21    29.84S
LONG PRAIRIE   FAIR      79  68  69 SW12      29.86S
LITTLE FALLS   SUNNY     79  64  61 W9        29.84S
LITCHFIELD     SUNNY     82  72  69 W7        29.85S
BUFFALO        SUNNY     83  68  61 W10       29.84S
MAPLE LAKE     MOSUNNY   82  71  68 W6        29.84F
HUTCHINSON     SUNNY     83  73  70 W9        29.86S
$$
MNZ037-044-045-052-053-221800-
   East Central Minnesota

CITY           SKY/WX    TMP DP  RH WIND       PRES   REMARKS
PRINCETON      SUNNY     82  70  65 W7        29.83S
MORA           SUNNY     75  64  69 W5        29.85S
CAMBRIDGE      SUNNY     82  66  57 W6        29.82R
RUSH CITY      MOSUNNY   79  67  66 CALM      29.84S
MOOSE LAKE     SUNNY     75  68  78 CALM      29.81F
HINCKLEY       FAIR      77  68  73 S3        29.83S
CLOQUET        MOSUNNY   72  64  78 CALM      29.84R
MCGREGOR       SUNNY     79  64  61 W3        29.84R
$$
MNZ071>073-080-081-089-090-097-098-221800-
   Southwest Minnesota

CITY           SKY/WX    TMP DP  RH WIND       PRES   REMARKS
MONTEVIDEO     CLOUDY    84  79  84 W8        29.87R HX  96
GRANITE FALLS  MOSUNNY   83  72  69 W9        29.88S
CANBY          MOSUNNY   82  69  64 CALM      29.90R
MARSHALL       MOSUNNY   81  72  74 NW12      29.88R
REDWOOD FALLS  SUNNY     83  69  62 W12       29.85S
OLIVIA         SUNNY     82  70  65 W6        29.85S
PIPESTONE      SUNNY     81  70  69 W9        29.92S
WINDOM         SUNNY     82  70  65 W7        29.88F
WORTHINGTON    MOSUNNY   80  71  74 W8        29.91S
JACKSON        MOSUNNY   79  70  73 CALM      29.89F
SLAYTON        SUNNY     79  69  71 W8        29.91F
$$
MNZ065>067-074>077-082>085-091>093-221800-
   South Central Minnesota

CITY           SKY/WX    TMP DP  RH WIND       PRES   REMARKS
MANKATO        SUNNY     78  70  76 VRB3      29.86S
NEW ULM        SUNNY     81  70  69 CALM      29.85S
ST JAMES       PTSUNNY   79  70  73 W5        29.87F
FAIRMONT       CLOUDY    78  72  81 N3        29.88S
GLENCOE        SUNNY     81  73  77 SW7       29.84S
FARIBAULT      SUNNY     81  68  65 CALM      29.84F
OWATONNA       MOSUNNY   79  70  73 CALM      29.85F
WASECA         PTSUNNY   77  68  73 CALM      29.87F
ALBERT LEA     CLOUDY    73  70  88 E6        29.88S
$$
MNZ078>079-086>088-094>096-221800-
   Southeast Minnesota

CITY           SKY/WX    TMP DP  RH WIND       PRES   REMARKS
ROCHESTER      CLOUDY    75  70  84 E5        29.87F
RED WING       SUNNY     82  64  54 CALM      29.81F
STANTON        SUNNY     81  68  65 S3        29.82F
DODGE CENTER   MOSUNNY   77  68  73 NE6       29.86F
WINONA         CLOUDY    73  68  83 NW5       29.86S
AUSTIN         PTSUNNY   75  70  83 E6        29.87F
PRESTON        CLOUDY    70  68  91 N3        29.89F
$$
ABBREVIATIONS USED IN REMARKS
   TC - TEMPERATURES IN CELSIUS
  WCI - WIND CHILL INDEX
   HX - HEAT INDEX
  VSB - VISIBILITY
$$




USA.gov is the U.S. government's official web portal to all federal, state and local government web resources and services.